Time,TemperatureF,DewpointF,PressureIn,WindDirection,WindDirectionDegrees,WindSpeedMPH,WindSpeedGustMPH,Humidity,HourlyPrecipIn,Conditions,Clouds,dailyrainin,SoftwareType,DateUTC
2013-08-18 00:20:00,62.6,56.3,30.11,East,80,0.0,0.0,80,0.00,,,0.00,Wunderground v.1.15,2013-08-18 05:20:00,
2013-08-18 00:30:00,62.1,56.2,30.11,East,80,0.0,0.0,81,0.00,,,0.00,Wunderground v.1.15,2013-08-18 05:30:00,
2013-08-18 00:35:00,62.1,56.2,30.11,East,80,0.0,0.0,81,0.00,,,0.00,Wunderground v.1.15,2013-08-18 05:35:00,
2013-08-18 00:40:00,62.1,56.2,30.11,East,80,0.0,0.0,81,0.00,,,0.00,Wunderground v.1.15,2013-08-18 05:40:00,
2013-08-18 00:50:00,61.5,55.6,30.12,East,80,0.0,0.0,81,0.00,,,0.00,Wunderground v.1.15,2013-08-18 05:50:00,
2013-08-18 01:05:00,61.2,56.3,30.12,East,80,0.0,0.0,84,0.00,,,0.00,Wunderground v.1.15,2013-08-18 06:05:00,
2013-08-18 01:10:00,61.0,56.5,30.12,East,80,0.0,0.0,85,0.00,,,0.00,Wunderground v.1.15,2013-08-18 06:10:00,
2013-08-18 01:20:00,60.7,56.2,30.12,East,80,0.0,0.0,85,0.00,,,0.00,Wunderground v.1.15,2013-08-18 06:20:00,
2013-08-18 01:25:00,60.7,56.2,30.12,East,80,0.0,0.0,85,0.00,,,0.00,Wunderground v.1.15,2013-08-18 06:25:00,
2013-08-18 01:35:00,60.4,56.2,30.12,East,80,0.0,0.0,86,0.00,,,0.00,Wunderground v.1.15,2013-08-18 06:35:00,
2013-08-18 01:45:00,60.1,56.2,30.12,East,80,0.0,0.0,87,0.00,,,0.00,Wunderground v.1.15,2013-08-18 06:45:00,
2013-08-18 01:50:00,59.9,56.0,30.12,East,80,0.0,0.0,87,0.00,,,0.00,Wunderground v.1.15,2013-08-18 06:50:00,
2013-08-18 02:05:00,59.8,55.9,30.12,East,80,0.0,0.0,87,0.00,,,0.00,Wunderground v.1.15,2013-08-18 07:05:00,
2013-08-18 02:10:00,59.6,56.0,30.12,East,80,0.0,0.0,88,0.00,,,0.00,Wunderground v.1.15,2013-08-18 07:10:00,
2013-08-18 02:20:00,59.5,55.9,30.12,East,80,0.0,0.0,88,0.00,,,0.00,Wunderground v.1.15,2013-08-18 07:20:00,
2013-08-18 02:35:00,59.3,55.7,30.12,East,80,0.0,0.0,88,0.00,,,0.00,Wunderground v.1.15,2013-08-18 07:35:00,
2013-08-18 02:45:00,59.2,55.6,30.12,East,80,0.0,0.0,88,0.00,,,0.00,Wunderground v.1.15,2013-08-18 07:45:00,
2013-08-18 02:55:00,59.0,55.4,30.12,East,80,0.0,0.0,88,0.00,,,0.00,Wunderground v.1.15,2013-08-18 07:55:00,
2013-08-18 03:15:00,58.7,55.2,30.12,East,80,0.0,0.0,88,0.00,,,0.00,Wunderground v.1.15,2013-08-18 08:15:00,
2013-08-18 03:20:00,58.7,55.5,30.12,East,80,0.0,0.0,89,0.00,,,0.00,Wunderground v.1.15,2013-08-18 08:20:00,
2013-08-18 03:25:00,58.7,55.5,30.12,East,80,0.0,0.0,89,0.00,,,0.00,Wunderground v.1.15,2013-08-18 08:25:00,
2013-08-18 03:40:00,58.4,55.2,30.12,East,80,0.0,0.0,89,0.00,,,0.00,Wunderground v.1.15,2013-08-18 08:40:00,
2013-08-18 03:50:00,58.3,55.1,30.12,East,80,0.0,0.0,89,0.00,,,0.00,Wunderground v.1.15,2013-08-18 08:50:00,
2013-08-18 03:55:00,58.3,55.1,30.12,East,80,0.0,0.0,89,0.00,,,0.00,Wunderground v.1.15,2013-08-18 08:55:00,
2013-08-18 04:00:00,58.3,55.1,30.12,East,80,0.0,0.0,89,0.00,,,0.00,Wunderground v.1.15,2013-08-18 09:00:00,
2013-08-18 04:10:00,58.1,54.9,30.12,East,80,0.0,0.0,89,0.00,,,0.00,Wunderground v.1.15,2013-08-18 09:10:00,
2013-08-18 04:15:00,58.0,54.8,30.12,East,80,0.0,0.0,89,0.00,,,0.00,Wunderground v.1.15,2013-08-18 09:15:00,
2013-08-18 04:25:00,57.8,54.6,30.12,East,80,0.0,0.0,89,0.00,,,0.00,Wunderground v.1.15,2013-08-18 09:25:00,
2013-08-18 04:30:00,57.8,54.6,30.12,East,80,0.0,0.0,89,0.00,,,0.00,Wunderground v.1.15,2013-08-18 09:30:00,
2013-08-18 04:40:00,57.7,54.5,30.13,East,80,0.0,0.0,89,0.00,,,0.00,Wunderground v.1.15,2013-08-18 09:40:00,
2013-08-18 04:50:00,57.5,54.3,30.13,East,80,0.0,0.0,89,0.00,,,0.00,Wunderground v.1.15,2013-08-18 09:50:00,
2013-08-18 04:55:00,57.7,54.5,30.13,East,80,0.0,0.0,89,0.00,,,0.00,Wunderground v.1.15,2013-08-18 09:55:00,
2013-08-18 05:10:00,58.1,54.9,30.13,East,80,0.0,0.0,89,0.00,,,0.00,Wunderground v.1.15,2013-08-18 10:10:00,
2013-08-18 05:15:00,58.1,54.9,30.13,East,80,0.0,0.0,89,0.00,,,0.00,Wunderground v.1.15,2013-08-18 10:15:00,
2013-08-18 05:25:00,58.1,54.9,30.13,East,80,0.0,0.0,89,0.00,,,0.00,Wunderground v.1.15,2013-08-18 10:25:00,
2013-08-18 05:35:00,58.1,54.2,30.14,East,80,0.0,0.0,87,0.00,,,0.00,Wunderground v.1.15,2013-08-18 10:35:00,
2013-08-18 05:45:00,58.1,54.2,30.14,East,80,0.0,0.0,87,0.00,,,0.00,Wunderground v.1.15,2013-08-18 10:45:00,
2013-08-18 05:50:00,58.1,54.2,30.14,East,80,0.0,0.0,87,0.00,,,0.00,Wunderground v.1.15,2013-08-18 10:50:00,
2013-08-18 05:55:00,58.1,54.2,30.14,East,80,0.0,0.0,87,0.00,,,0.00,Wunderground v.1.15,2013-08-18 10:55:00,
2013-08-18 06:05:00,58.1,54.2,30.14,East,80,0.0,0.0,87,0.00,,,0.00,Wunderground v.1.15,2013-08-18 11:05:00,
2013-08-18 06:10:00,58.1,54.2,30.14,East,80,0.0,0.0,87,0.00,,,0.00,Wunderground v.1.15,2013-08-18 11:10:00,
2013-08-18 06:20:00,58.0,53.8,30.14,East,80,0.0,0.0,86,0.00,,,0.00,Wunderground v.1.15,2013-08-18 11:20:00,
2013-08-18 06:25:00,58.0,53.8,30.14,East,80,0.0,0.0,86,0.00,,,0.00,Wunderground v.1.15,2013-08-18 11:25:00,
2013-08-18 06:30:00,58.0,53.8,30.14,East,80,0.0,0.0,86,0.00,,,0.00,Wunderground v.1.15,2013-08-18 11:30:00,
2013-08-18 06:40:00,58.0,53.8,30.15,East,80,0.0,0.0,86,0.00,,,0.00,Wunderground v.1.15,2013-08-18 11:40:00,
2013-08-18 06:45:00,58.0,53.8,30.15,East,80,0.0,0.0,86,0.00,,,0.00,Wunderground v.1.15,2013-08-18 11:45:00,
2013-08-18 06:50:00,58.1,53.9,30.15,East,80,0.0,0.0,86,0.00,,,0.00,Wunderground v.1.15,2013-08-18 11:50:00,
2013-08-18 07:00:00,58.1,53.9,30.15,East,80,0.0,0.0,86,0.00,,,0.00,Wunderground v.1.15,2013-08-18 12:00:00,
2013-08-18 07:10:00,58.3,54.1,30.16,East,80,0.0,0.0,86,0.00,,,0.00,Wunderground v.1.15,2013-08-18 12:10:00,
2013-08-18 07:15:00,58.3,54.1,30.16,East,80,0.0,0.0,86,0.00,,,0.00,Wunderground v.1.15,2013-08-18 12:15:00,
2013-08-18 07:25:00,58.3,54.1,30.16,East,80,0.0,0.0,86,0.00,,,0.00,Wunderground v.1.15,2013-08-18 12:25:00,
2013-08-18 07:35:00,60.1,55.9,30.17,East,80,0.0,0.0,86,0.00,,,0.00,Wunderground v.1.15,2013-08-18 12:35:00,
2013-08-18 07:45:00,60.6,56.4,30.17,East,80,0.0,0.0,86,0.00,,,0.00,Wunderground v.1.15,2013-08-18 12:45:00,
2013-08-18 07:50:00,61.0,56.8,30.17,East,80,0.0,0.0,86,0.00,,,0.00,Wunderground v.1.15,2013-08-18 12:50:00,
2013-08-18 07:55:00,61.2,57.0,30.17,East,80,0.0,0.0,86,0.00,,,0.00,Wunderground v.1.15,2013-08-18 12:55:00,
2013-08-18 08:05:00,61.2,57.0,30.17,East,80,0.0,0.0,86,0.00,,,0.00,Wunderground v.1.15,2013-08-18 13:05:00,
2013-08-18 08:15:00,61.2,57.0,30.17,East,80,0.0,0.0,86,0.00,,,0.00,Wunderground v.1.15,2013-08-18 13:15:00,
2013-08-18 08:20:00,61.2,57.0,30.17,East,80,0.0,0.0,86,0.00,,,0.00,Wunderground v.1.15,2013-08-18 13:20:00,
2013-08-18 08:25:00,-999.9,-99.9,30.17,East,79,0.0,0.0,255,-99.99,,,0.00,Wunderground v.1.15,2013-08-18 13:25:00,
2013-08-18 08:40:00,65.7,57.2,30.17,East,79,0.0,0.0,74,0.00,,,0.00,Wunderground v.1.15,2013-08-18 13:40:00,
2013-08-18 08:50:00,66.2,57.7,30.17,East,79,0.0,0.0,74,0.00,,,0.00,Wunderground v.1.15,2013-08-18 13:50:00,
2013-08-18 09:00:00,66.5,57.6,30.17,East,79,0.0,0.0,73,0.00,,,0.00,Wunderground v.1.15,2013-08-18 14:00:00,
2013-08-18 09:10:00,67.5,58.5,30.17,East,79,0.0,0.0,73,0.00,,,0.00,Wunderground v.1.15,2013-08-18 14:10:00,
2013-08-18 09:15:00,67.8,58.8,30.17,East,79,0.0,0.0,73,0.00,,,0.00,Wunderground v.1.15,2013-08-18 14:15:00,
2013-08-18 09:30:00,68.8,58.2,30.17,ENE,71,0.0,0.0,69,0.00,,,0.00,Wunderground v.1.15,2013-08-18 14:30:00,
2013-08-18 09:35:00,69.2,58.2,30.17,ENE,71,0.0,0.0,68,0.00,,,0.00,Wunderground v.1.15,2013-08-18 14:35:00,
2013-08-18 09:45:00,69.8,58.8,30.17,ENE,71,0.0,0.0,68,0.00,,,0.00,Wunderground v.1.15,2013-08-18 14:45:00,
2013-08-18 09:50:00,71.0,58.2,30.17,ENE,71,0.0,0.0,64,0.00,,,0.00,Wunderground v.1.15,2013-08-18 14:50:00,
2013-08-18 09:55:00,71.7,58.9,30.17,ENE,71,0.0,0.0,64,0.00,,,0.00,Wunderground v.1.15,2013-08-18 14:55:00,
2013-08-18 10:00:00,71.7,58.9,30.17,ESE,112,0.0,0.0,64,0.00,,,0.00,Wunderground v.1.15,2013-08-18 15:00:00,
2013-08-18 10:15:00,72.9,60.0,30.16,South,174,0.0,0.0,64,0.00,,,0.00,Wunderground v.1.15,2013-08-18 15:15:00,
2013-08-18 10:25:00,72.9,60.0,30.16,South,174,0.0,0.0,64,0.00,,,0.00,Wunderground v.1.15,2013-08-18 15:25:00,
2013-08-18 10:35:00,76.4,63.3,30.16,NE,49,0.0,0.0,64,0.00,,,0.00,Wunderground v.1.15,2013-08-18 15:35:00,
2013-08-18 10:40:00,77.0,59.6,30.16,SSW,198,0.0,0.0,55,0.00,,,0.00,Wunderground v.1.15,2013-08-18 15:40:00,
2013-08-18 10:45:00,77.1,59.7,30.16,North,0,0.0,0.0,55,0.00,,,0.00,Wunderground v.1.15,2013-08-18 15:45:00,
2013-08-18 10:55:00,77.1,59.7,30.16,SSW,208,0.0,0.0,55,0.00,,,0.00,Wunderground v.1.15,2013-08-18 15:55:00,
2013-08-18 11:00:00,77.5,60.1,30.16,SSW,208,0.0,1.0,55,0.00,,,0.00,Wunderground v.1.15,2013-08-18 16:00:00,
2013-08-18 11:05:00,77.3,57.2,30.15,South,169,0.0,1.0,50,0.00,,,0.00,Wunderground v.1.15,2013-08-18 16:05:00,
2013-08-18 11:15:00,77.9,57.8,30.15,NE,38,0.0,0.0,50,0.00,,,0.00,Wunderground v.1.15,2013-08-18 16:15:00,
2013-08-18 11:30:00,78.2,58.0,30.15,NE,37,0.0,0.0,50,0.00,,,0.00,Wunderground v.1.15,2013-08-18 16:30:00,
2013-08-18 11:45:00,78.0,57.9,30.15,SE,134,1.0,1.0,50,0.00,,,0.00,Wunderground v.1.15,2013-08-18 16:45:00,
2013-08-18 11:55:00,77.1,57.0,30.15,SE,144,0.0,0.0,50,0.00,,,0.00,Wunderground v.1.15,2013-08-18 16:55:00,
2013-08-18 12:10:00,77.3,56.6,30.14,NE,37,0.0,0.0,49,0.00,,,0.00,Wunderground v.1.15,2013-08-18 17:10:00,
2013-08-18 12:15:00,77.3,56.6,30.14,ESE,120,0.0,0.0,49,0.00,,,0.00,Wunderground v.1.15,2013-08-18 17:15:00,
2013-08-18 12:20:00,78.0,57.3,30.14,NE,52,0.0,0.0,49,0.00,,,0.00,Wunderground v.1.15,2013-08-18 17:20:00,
2013-08-18 12:30:00,78.0,57.3,30.14,SSE,151,0.0,0.0,49,0.00,,,0.00,Wunderground v.1.15,2013-08-18 17:30:00,
2013-08-18 12:40:00,78.0,57.3,30.13,SE,133,1.0,1.0,49,0.00,,,0.00,Wunderground v.1.15,2013-08-18 17:40:00,
2013-08-18 12:45:00,79.3,58.5,30.13,South,191,1.0,3.0,49,0.00,,,0.00,Wunderground v.1.15,2013-08-18 17:45:00,
2013-08-18 12:55:00,79.9,59.0,30.13,South,171,0.0,0.0,49,0.00,,,0.00,Wunderground v.1.15,2013-08-18 17:55:00,
2013-08-18 13:15:00,79.2,58.4,30.13,NE,44,1.0,1.0,49,0.00,,,0.00,Wunderground v.1.15,2013-08-18 18:15:00,
2013-08-18 13:25:00,79.2,58.4,30.12,NE,47,0.0,0.0,49,0.00,,,0.00,Wunderground v.1.15,2013-08-18 18:25:00,
2013-08-18 13:40:00,79.3,58.5,30.12,SSW,193,0.0,0.0,49,0.00,,,0.00,Wunderground v.1.15,2013-08-18 18:40:00,
2013-08-18 13:45:00,79.7,58.8,30.12,SSE,148,2.0,2.0,49,0.00,,,0.00,Wunderground v.1.15,2013-08-18 18:45:00,
2013-08-18 13:50:00,80.8,58.7,30.11,SSE,161,2.0,2.0,47,0.00,,,0.00,Wunderground v.1.15,2013-08-18 18:50:00,
2013-08-18 14:05:00,81.8,57.1,30.11,SSW,202,1.0,1.0,43,0.00,,,0.00,Wunderground v.1.15,2013-08-18 19:05:00,
2013-08-18 14:10:00,82.0,57.3,30.11,SSE,165,2.0,2.0,43,0.00,,,0.00,Wunderground v.1.15,2013-08-18 19:10:00,
2013-08-18 14:20:00,81.8,57.8,30.10,SSW,203,1.0,1.0,44,0.00,,,0.00,Wunderground v.1.15,2013-08-18 19:20:00,
2013-08-18 14:30:00,81.8,57.8,30.10,South,182,1.0,1.0,44,0.00,,,0.00,Wunderground v.1.15,2013-08-18 19:30:00,
2013-08-18 14:55:00,81.0,57.7,30.10,South,185,0.0,0.0,45,0.00,,,0.00,Wunderground v.1.15,2013-08-18 19:55:00,
2013-08-18 15:00:00,81.6,58.2,30.10,SSE,162,1.0,1.0,45,0.00,,,0.00,Wunderground v.1.15,2013-08-18 20:00:00,
2013-08-18 15:20:00,81.6,56.9,30.09,SSE,148,1.0,1.0,43,0.00,,,0.00,Wunderground v.1.15,2013-08-18 20:20:00,
2013-08-18 15:30:00,79.9,55.4,30.09,SE,126,0.0,1.0,43,0.00,,,0.00,Wunderground v.1.15,2013-08-18 20:30:00,
2013-08-18 15:40:00,80.3,58.2,30.09,SSE,154,1.0,1.0,47,0.00,,,0.00,Wunderground v.1.15,2013-08-18 20:40:00,
2013-08-18 15:50:00,80.6,58.5,30.08,NE,48,0.0,0.0,47,0.00,,,0.00,Wunderground v.1.15,2013-08-18 20:50:00,
2013-08-18 15:55:00,80.6,58.5,30.08,NW,326,0.0,0.0,47,0.00,,,0.00,Wunderground v.1.15,2013-08-18 20:55:00,
2013-08-18 16:20:00,81.2,59.1,30.07,SE,133,0.0,0.0,47,0.00,,,0.00,Wunderground v.1.15,2013-08-18 21:20:00,
2013-08-18 16:30:00,81.0,58.9,30.07,SSE,154,0.0,0.0,47,0.00,,,0.00,Wunderground v.1.15,2013-08-18 21:30:00,
2013-08-18 16:35:00,80.8,58.7,30.07,SE,134,0.0,0.0,47,0.00,,,0.00,Wunderground v.1.15,2013-08-18 21:35:00,
2013-08-18 16:45:00,80.6,58.5,30.07,SW,215,1.0,1.0,47,0.00,,,0.00,Wunderground v.1.15,2013-08-18 21:45:00,
2013-08-18 16:55:00,80.3,58.2,30.07,SE,143,0.0,0.0,47,0.00,,,0.00,Wunderground v.1.15,2013-08-18 21:55:00,
2013-08-18 17:00:00,80.3,58.2,30.07,South,174,0.0,0.0,47,0.00,,,0.00,Wunderground v.1.15,2013-08-18 22:00:00,
2013-08-18 17:05:00,80.5,58.4,30.06,SSE,147,1.0,3.0,47,0.00,,,0.00,Wunderground v.1.15,2013-08-18 22:05:00,
2013-08-18 17:10:00,80.3,58.2,30.06,SSW,200,1.0,6.0,47,0.00,,,0.00,Wunderground v.1.15,2013-08-18 22:10:00,
2013-08-18 17:15:00,80.3,58.2,30.06,SSE,148,1.0,1.0,47,0.00,,,0.00,Wunderground v.1.15,2013-08-18 22:15:00,
2013-08-18 17:20:00,79.9,57.9,30.07,South,189,0.0,1.0,47,0.00,,,0.00,Wunderground v.1.15,2013-08-18 22:20:00,
2013-08-18 17:30:00,79.7,59.4,30.07,SSW,210,0.0,0.0,50,0.00,,,0.00,Wunderground v.1.15,2013-08-18 22:30:00,
2013-08-18 17:40:00,79.7,59.4,30.07,North,0,0.0,0.0,50,0.00,,,0.00,Wunderground v.1.15,2013-08-18 22:40:00,
2013-08-18 17:50:00,78.8,58.6,30.07,North,32767,-999.0,0.0,50,0.00,,,0.00,Wunderground v.1.15,2013-08-18 22:50:00,
2013-08-18 17:55:00,78.8,58.6,30.07,North,32767,-999.0,0.0,50,0.00,,,0.00,Wunderground v.1.15,2013-08-18 22:55:00,
2013-08-18 18:05:00,79.0,58.8,30.07,North,32767,-999.0,0.0,50,0.00,,,0.00,Wunderground v.1.15,2013-08-18 23:05:00,
2013-08-18 18:15:00,79.0,58.8,30.07,North,32767,-999.0,0.0,50,0.00,,,0.00,Wunderground v.1.15,2013-08-18 23:15:00,
2013-08-18 18:30:00,78.8,59.1,30.07,North,32767,-999.0,0.0,51,0.00,,,0.00,Wunderground v.1.15,2013-08-18 23:30:00,
2013-08-18 18:40:00,78.8,59.1,30.07,North,32767,-999.0,0.0,51,0.00,,,0.00,Wunderground v.1.15,2013-08-18 23:40:00,
2013-08-18 18:55:00,78.0,58.9,30.07,North,32767,-999.0,0.0,52,0.00,,,0.00,Wunderground v.1.15,2013-08-18 23:55:00,
2013-08-18 19:05:00,78.0,58.9,30.06,North,32767,-999.0,0.0,52,0.00,,,0.00,Wunderground v.1.15,2013-08-19 00:05:00,
2013-08-18 19:10:00,77.9,58.9,30.06,North,32767,-999.0,0.0,52,0.00,,,0.00,Wunderground v.1.15,2013-08-19 00:10:00,
2013-08-18 19:25:00,77.5,60.1,30.06,North,32767,-999.0,0.0,55,0.00,,,0.00,Wunderground v.1.15,2013-08-19 00:25:00,
2013-08-18 19:35:00,77.0,60.6,30.06,North,32767,-999.0,0.0,57,0.00,,,0.00,Wunderground v.1.15,2013-08-19 00:35:00,
2013-08-18 19:40:00,76.6,60.2,30.06,North,32767,-999.0,0.0,57,0.00,,,0.00,Wunderground v.1.15,2013-08-19 00:40:00,
2013-08-18 19:45:00,76.2,59.9,30.06,North,32767,-999.0,0.0,57,0.00,,,0.00,Wunderground v.1.15,2013-08-19 00:45:00,
2013-08-18 19:50:00,75.9,59.6,30.06,North,32767,-999.0,0.0,57,0.00,,,0.00,Wunderground v.1.15,2013-08-19 00:50:00,
2013-08-18 19:55:00,75.7,60.4,30.06,North,32767,-999.0,0.0,59,0.00,,,0.00,Wunderground v.1.15,2013-08-19 00:55:00,
2013-08-18 20:00:00,75.2,59.9,30.06,North,32767,-999.0,0.0,59,0.00,,,0.00,Wunderground v.1.15,2013-08-19 01:00:00,
2013-08-18 20:10:00,74.7,60.4,30.06,North,32767,-999.0,0.0,61,0.00,,,0.00,Wunderground v.1.15,2013-08-19 01:10:00,
2013-08-18 20:15:00,74.3,60.0,30.06,North,32767,-999.0,0.0,61,0.00,,,0.00,Wunderground v.1.15,2013-08-19 01:15:00,
2013-08-18 20:20:00,74.3,60.0,30.07,North,32767,-999.0,0.0,61,0.00,,,0.00,Wunderground v.1.15,2013-08-19 01:20:00,
2013-08-18 20:35:00,73.3,60.4,30.07,North,32767,-999.0,0.0,64,0.00,,,0.00,Wunderground v.1.15,2013-08-19 01:35:00,
2013-08-18 20:40:00,73.3,60.4,30.07,North,32767,-999.0,0.0,64,0.00,,,0.00,Wunderground v.1.15,2013-08-19 01:40:00,
2013-08-18 20:50:00,72.1,60.1,30.07,North,32767,-999.0,0.0,66,0.00,,,0.00,Wunderground v.1.15,2013-08-19 01:50:00,
2013-08-18 20:55:00,72.1,60.1,30.07,North,32767,-999.0,0.0,66,0.00,,,0.00,Wunderground v.1.15,2013-08-19 01:55:00,
2013-08-18 21:05:00,71.5,60.4,30.07,North,32767,-999.0,0.0,68,0.00,,,0.00,Wunderground v.1.15,2013-08-19 02:05:00,
2013-08-18 21:15:00,71.0,60.3,30.07,North,32767,-999.0,0.0,69,0.00,,,0.00,Wunderground v.1.15,2013-08-19 02:15:00,
2013-08-18 21:20:00,70.9,60.2,30.07,North,32767,-999.0,0.0,69,0.00,,,0.00,Wunderground v.1.15,2013-08-19 02:20:00,
2013-08-18 21:25:00,70.5,60.2,30.07,North,32767,-999.0,0.0,70,0.00,,,0.00,Wunderground v.1.15,2013-08-19 02:25:00,
2013-08-18 21:35:00,70.2,60.4,30.07,North,32767,-999.0,0.0,71,0.00,,,0.00,Wunderground v.1.15,2013-08-19 02:35:00,
2013-08-18 21:40:00,70.0,60.2,30.07,North,32767,-999.0,0.0,71,0.00,,,0.00,Wunderground v.1.15,2013-08-19 02:40:00,
2013-08-18 21:55:00,69.5,60.5,30.07,North,32767,-999.0,0.0,73,0.00,,,0.00,Wunderground v.1.15,2013-08-19 02:55:00,
2013-08-18 22:00:00,69.3,60.3,30.07,North,32767,-999.0,0.0,73,0.00,,,0.00,Wunderground v.1.15,2013-08-19 03:00:00,
2013-08-18 22:10:00,69.2,60.2,30.07,North,32767,-999.0,0.0,73,0.00,,,0.00,Wunderground v.1.15,2013-08-19 03:10:00,
2013-08-18 22:25:00,68.5,59.9,30.07,SSE,157,0.0,0.0,74,0.00,,,0.00,Wunderground v.1.15,2013-08-19 03:25:00,
2013-08-18 22:30:00,68.5,59.9,30.07,SSE,157,0.0,0.0,74,0.00,,,0.00,Wunderground v.1.15,2013-08-19 03:30:00,
2013-08-18 22:40:00,68.3,-99.9,30.07,SSE,157,0.0,0.0,255,0.00,,,0.00,Wunderground v.1.15,2013-08-19 03:40:00,
2013-08-18 22:45:00,68.2,-99.9,30.07,SSE,157,0.0,0.0,255,0.00,,,0.00,Wunderground v.1.15,2013-08-19 03:45:00,
2013-08-18 22:50:00,68.0,59.4,30.07,SSE,157,0.0,0.0,74,0.00,,,0.00,Wunderground v.1.15,2013-08-19 03:50:00,
2013-08-18 22:55:00,68.0,59.4,30.07,SSE,157,0.0,0.0,74,0.00,,,0.00,Wunderground v.1.15,2013-08-19 03:55:00,
2013-08-18 23:05:00,68.0,59.4,30.07,SSE,157,0.0,0.0,74,0.00,,,0.00,Wunderground v.1.15,2013-08-19 04:05:00,
2013-08-18 23:10:00,67.8,59.2,30.07,SSE,157,0.0,0.0,74,0.00,,,0.00,Wunderground v.1.15,2013-08-19 04:10:00,
2013-08-18 23:15:00,67.8,59.2,30.07,SSE,157,0.0,0.0,74,0.00,,,0.00,Wunderground v.1.15,2013-08-19 04:15:00,
2013-08-18 23:25:00,67.7,59.1,30.07,SSE,157,0.0,0.0,74,0.00,,,0.00,Wunderground v.1.15,2013-08-19 04:25:00,
2013-08-18 23:35:00,67.3,58.7,30.07,SSE,157,0.0,0.0,74,0.00,,,0.00,Wunderground v.1.15,2013-08-19 04:35:00,
2013-08-18 23:40:00,67.3,58.7,30.07,SSE,157,0.0,0.0,74,0.00,,,0.00,Wunderground v.1.15,2013-08-19 04:40:00,
2013-08-18 23:50:00,67.2,58.6,30.08,SSE,157,0.0,0.0,74,0.00,,,0.00,Wunderground v.1.15,2013-08-19 04:50:00,
2013-08-18 23:55:00,67.0,58.8,30.08,SSE,157,0.0,0.0,75,0.00,,,0.00,Wunderground v.1.15,2013-08-19 04:55:00,